Telluride, CO

8:13 AM MDT on April 23, 2017 (GMT -0600)
Telluride Regional

Weather History for KTEX - May, 2012

Change the Weather History Date:

Saturday, May 26, 2012

  Actual Average Record
Temperature  
Mean Temperature 52 °F -  
Max Temperature 62 °F 62 °F 69 °F (2001)
Min Temperature 39 °F 39 °F 28 °F (1997)
Degree Days  
Heating Degree Days 14    
Growing Degree Days 2 (Base 50)    
Moisture  
Dew Point 16 °F    
Average Humidity 22    
Maximum Humidity 35    
Minimum Humidity 15    
Precipitation  
Precipitation 0.00 in - - ()
Sea Level Pressure  
Sea Level Pressure 29.95 in    
Wind  
Wind Speed 17 mph (SSE)    
Max Wind Speed 41 mph    
Max Gust Speed 72 mph    
Visibility 8 miles    
Events      
Averages and records for this station are not official NWS values.
T = Trace of Precipitation, MM = Missing Value Source: NWS Daily Summary

Daily Weather History Graph

Daily Weather History Graph

Search for Another Location

Airport or City:

Trip Planner

Search our weather history database for the weather conditions in past years. The results will help you decide how hot, cold, wet, or windy it might be!

Date:

Astronomy

May. 26, 2012 Rise Set
Actual Time 5:53 AM MDT 8:24 PM MDT
Civil Twilight 5:22 AM MDT 8:55 PM MDT
Nautical Twilight 4:45 AM MDT 9:32 PM MDT
Astronomical Twilight 4:03 AM MDT 10:14 PM MDT
Moon 10:55 AM MDT (5/26) 12:03 AM MDT (5/26)
Length of Visible Light 15h 32m
Length of Day
14h 31m
Waxing Crescent, 29% of the Moon is Illuminated
May 26
Waxing Crescent
May 28
First Quarter
Jun 4
Full
Jun 11
Last Quarter
Jun 19
New

Hourly Weather History & Observations

Time (MDT) Temp. Windchill Dew Point Humidity Pressure Visibility Wind Dir Wind Speed Gust Speed Precip Events Conditions
12:15 AM 59.0 °F - 19.4 °F 22% 29.99 in 10.0 mi South 9.2 mph 20.7 mph N/A   Clear
12:35 AM 59.0 °F - 19.4 °F 22% 29.99 in 10.0 mi South 16.1 mph 25.3 mph N/A   Clear
12:55 AM 57.2 °F - 19.4 °F 23% 30.00 in 10.0 mi SSE 5.8 mph 17.3 mph N/A   Clear
1:15 AM 57.2 °F - 19.4 °F 23% 30.01 in 10.0 mi SE 9.2 mph - N/A   Clear
1:35 AM 57.2 °F - 19.4 °F 23% 30.00 in 10.0 mi SSE 17.3 mph 24.2 mph N/A   Clear
1:55 AM 57.2 °F - 19.4 °F 23% 30.00 in 10.0 mi SE 16.1 mph 27.6 mph N/A   Clear
2:15 AM 55.4 °F - 21.2 °F 26% 29.99 in 10.0 mi SSE 20.7 mph 31.1 mph N/A   Clear
2:35 AM 55.4 °F - 21.2 °F 26% 30.00 in 10.0 mi SSE 24.2 mph 36.8 mph N/A   Clear
2:55 AM 55.4 °F - 21.2 °F 26% 30.00 in 10.0 mi SE 17.3 mph 29.9 mph N/A   Clear
3:15 AM 55.4 °F - 23.0 °F 29% 30.00 in 10.0 mi SE 17.3 mph 27.6 mph N/A   Clear
3:35 AM 53.6 °F - 23.0 °F 30% 29.99 in 10.0 mi SE 15.0 mph 20.7 mph N/A   Clear
3:55 AM 53.6 °F - 23.0 °F 30% 29.99 in 10.0 mi SE 15.0 mph 28.8 mph N/A   Clear
4:15 AM 53.6 °F - 23.0 °F 30% 29.98 in 10.0 mi SE 12.7 mph 26.5 mph N/A   Clear
4:35 AM 53.6 °F - 24.8 °F 33% 29.97 in 10.0 mi SSE 21.9 mph 39.1 mph N/A   Clear
4:55 AM 53.6 °F - 24.8 °F 33% 29.97 in 10.0 mi SE 21.9 mph 32.2 mph N/A   Clear
5:15 AM 53.6 °F - 26.6 °F 35% 29.97 in 10.0 mi SSE 11.5 mph 24.2 mph N/A   Clear
5:35 AM 53.6 °F - 24.8 °F 33% 29.96 in 10.0 mi SE 18.4 mph 27.6 mph N/A   Clear
5:55 AM 53.6 °F - 23.0 °F 30% 29.95 in 10.0 mi SE 19.6 mph 35.7 mph N/A   Clear
6:15 AM 53.6 °F - 23.0 °F 30% 29.96 in 10.0 mi SE 19.6 mph 29.9 mph N/A   Clear
6:35 AM 53.6 °F - 23.0 °F 30% 29.96 in 10.0 mi SE 10.4 mph 21.9 mph N/A   Clear
6:55 AM 53.6 °F - 24.8 °F 33% 29.95 in 10.0 mi SE 15.0 mph 21.9 mph N/A   Clear
7:15 AM 53.6 °F - 24.8 °F 33% 29.95 in 10.0 mi ESE 9.2 mph 18.4 mph N/A   Clear
7:35 AM 53.6 °F - 23.0 °F 30% 29.95 in 10.0 mi SE 17.3 mph 31.1 mph N/A   Clear
7:55 AM 55.4 °F - 23.0 °F 29% 29.95 in 10.0 mi ESE 15.0 mph 29.9 mph N/A   Clear
8:15 AM 55.4 °F - 21.2 °F 26% 29.96 in 10.0 mi SE 18.4 mph 31.1 mph N/A   Clear
8:35 AM 55.4 °F - 21.2 °F 26% 29.96 in 10.0 mi SE 25.3 mph 36.8 mph N/A   Clear
8:55 AM 55.4 °F - 21.2 °F 26% 29.95 in 10.0 mi SE 26.5 mph 41.4 mph N/A   Clear
9:15 AM 55.4 °F - 19.4 °F 25% 29.95 in 10.0 mi SE 27.6 mph 42.6 mph N/A   Clear
9:35 AM 57.2 °F - 19.4 °F 23% 29.94 in 10.0 mi ESE 24.2 mph 35.7 mph N/A   Clear
9:55 AM 57.2 °F - 17.6 °F 21% 29.94 in 10.0 mi SE 29.9 mph 41.4 mph N/A   Clear
10:15 AM 57.2 °F - 17.6 °F 21% 29.95 in 10.0 mi SE 17.3 mph 41.4 mph N/A   Clear
10:35 AM 59.0 °F - 17.6 °F 20% 29.94 in 10.0 mi SE 11.5 mph 39.1 mph N/A   Clear
10:55 AM 59.0 °F - 17.6 °F 20% 29.93 in 10.0 mi SE 26.5 mph 41.4 mph N/A   Clear
11:15 AM 59.0 °F - 17.6 °F 20% 29.93 in 10.0 mi SSE 16.1 mph 42.6 mph N/A   Clear
11:35 AM 59.0 °F - 17.6 °F 20% 29.92 in 10.0 mi SE 35.7 mph 44.9 mph N/A   Clear
11:55 AM 59.0 °F - 15.8 °F 19% 29.91 in 10.0 mi SE 35.7 mph 44.9 mph N/A   Scattered Clouds
12:15 PM 60.8 °F - 17.6 °F 19% 29.92 in 10.0 mi SE 19.6 mph 46.0 mph N/A   Scattered Clouds
12:35 PM 60.8 °F - 17.6 °F 19% 29.90 in 10.0 mi SSE 26.5 mph 32.2 mph N/A   Scattered Clouds
12:55 PM 62.6 °F - 14.0 °F 15% 29.90 in 7.0 mi SE 21.9 mph 55.2 mph N/A   Scattered Clouds
1:15 PM 62.6 °F - 14.0 °F 15% 29.89 in 10.0 mi SSE 26.5 mph 56.4 mph N/A   Scattered Clouds
1:35 PM 62.6 °F - 14.0 °F 15% 29.90 in 10.0 mi SSE 23.0 mph 35.7 mph N/A   Scattered Clouds
1:55 PM 62.6 °F - 14.0 °F 15% 29.87 in 5.0 mi SSE 28.8 mph 57.5 mph N/A   Haze
2:15 PM 62.6 °F - 14.0 °F 15% 29.87 in 10.0 mi SE 24.2 mph 39.1 mph N/A   Mostly Cloudy
2:35 PM 62.6 °F - 14.0 °F 15% 29.85 in 10.0 mi SSE 34.5 mph 50.6 mph N/A   Mostly Cloudy
2:55 PM 62.6 °F - 14.0 °F 15% 29.86 in 7.0 mi SE 24.2 mph 47.2 mph N/A   Scattered Clouds
3:15 PM 62.6 °F - 14.0 °F 15% 29.85 in 5.0 mi South 24.2 mph 54.1 mph N/A   Haze
3:35 PM 62.6 °F - 14.0 °F 15% 29.86 in 5.0 mi SSE 21.9 mph 51.8 mph N/A   Haze
3:55 PM 62.6 °F - 14.0 °F 15% 29.85 in 7.0 mi South 25.3 mph 50.6 mph N/A   Mostly Cloudy
4:15 PM 62.6 °F - 15.8 °F 16% 29.86 in 5.0 mi South 24.2 mph 40.3 mph N/A   Haze
4:35 PM 62.6 °F - 15.8 °F 16% 29.87 in 5.0 mi SSE 12.7 mph 41.4 mph N/A   Haze
4:55 PM 62.6 °F - 14.0 °F 15% 29.86 in 4.0 mi South 32.2 mph 72.5 mph N/A   Haze
5:15 PM 60.8 °F - 14.0 °F 16% 29.87 in 4.0 mi SSW 29.9 mph 44.9 mph N/A   Haze
5:35 PM 60.8 °F - 17.6 °F 19% 29.87 in 4.0 mi South 32.2 mph 54.1 mph N/A   Haze
5:55 PM 59.0 °F - 19.4 °F 22% 29.90 in 4.0 mi SSE 19.6 mph 54.1 mph N/A   Haze
6:15 PM 57.2 °F - 19.4 °F 23% 29.90 in 5.0 mi SSE 28.8 mph 58.7 mph N/A   Haze
6:35 PM 55.4 °F - 17.6 °F 23% 29.90 in 5.0 mi SSE 41.4 mph 54.1 mph N/A   Haze
6:55 PM 55.4 °F - 17.6 °F 23% 29.92 in 5.0 mi SSE 15.0 mph 40.3 mph N/A   Haze
7:15 PM 53.6 °F - 17.6 °F 24% 29.94 in 5.0 mi WSW 8.1 mph 46.0 mph N/A   Haze
7:35 PM 51.8 °F - 15.8 °F 24% 29.95 in 5.0 mi South 21.9 mph 32.2 mph N/A   Haze
7:55 PM 50.0 °F - 12.2 °F 22% 29.97 in 5.0 mi SSW 10.4 mph 34.5 mph N/A   Haze
8:15 PM 46.4 °F 40.7 °F 8.6 °F 22% 29.99 in 4.0 mi SSW 12.7 mph 24.2 mph N/A   Haze
8:35 PM 46.4 °F 40.7 °F 5.0 °F 18% 30.01 in 4.0 mi SSW 12.7 mph 21.9 mph N/A   Haze
8:55 PM 44.6 °F 41.4 °F 5.0 °F 20% 30.03 in 5.0 mi SW 5.8 mph - N/A   Haze
9:15 PM 44.6 °F 39.7 °F 3.2 °F 18% 30.04 in 7.0 mi SSW 9.2 mph 16.1 mph N/A   Overcast
9:35 PM 44.6 °F 41.4 °F 1.4 °F 17% 30.05 in 7.0 mi South 5.8 mph - N/A   Overcast
9:55 PM 42.8 °F 39.3 °F -0.4 °F 16% 30.05 in 10.0 mi SW 5.8 mph - N/A   Overcast
10:15 PM 42.8 °F 40.1 °F -0.4 °F 16% 30.06 in 10.0 mi SW 4.6 mph 16.1 mph N/A   Scattered Clouds
10:35 PM 41.0 °F 37.1 °F -2.2 °F 16% 30.06 in 10.0 mi SSW 5.8 mph 16.1 mph N/A   Clear
10:55 PM 41.0 °F 36.4 °F -0.4 °F 18% 30.07 in 10.0 mi WSW 6.9 mph - N/A   Clear
11:15 PM 41.0 °F 37.1 °F -0.4 °F 18% 30.07 in 10.0 mi SW 5.8 mph 16.1 mph N/A   Clear
11:35 PM 41.0 °F 38.0 °F -0.4 °F 18% 30.07 in 10.0 mi SW 4.6 mph - N/A   Clear
11:55 PM 39.2 °F - -0.4 °F 19% 30.07 in 10.0 mi Calm Calm - N/A   Clear